Location: NJAA Observatory
(40.6819°N, 74.8979°W)
Time: 22:12:43
(UTC-04:00)

Transit 2A Rocket - Visible Passes

Search period start: 20 October 2014 00:00
Search period end: 30 October 2014 00:00
Orbit: 591 x 917 km, 66.7° (Epoch: 19 October)

Date Brightness Start Highest point End Pass type
(mag) Time Alt. Az. Time Alt. Az. Time Alt. Az.
20 Oct 7.5 04:15:55 15° SE 04:15:55 15° SE 04:16:49 10° SSE visible
20 Oct 7.2 05:56:00 11° SW 05:56:00 11° SW 05:56:21 10° SW visible
20 Oct 4.6 18:41:11 10° SSW 18:45:24 59° ESE 18:49:53 10° NE visible
20 Oct 7.2 20:25:34 10° W 20:28:28 17° NW 20:31:31 10° N visible
21 Oct 6.6 19:42:41 10° WSW 19:46:25 27° NW 19:50:23 10° N visible
22 Oct 5.6 19:00:19 10° SW 19:04:30 46° NW 19:08:58 10° NNE visible
23 Oct 7.5 20:04:20 10° WNW 20:06:10 12° NW 20:08:02 10° NNW visible
24 Oct 7.1 19:20:48 10° W 19:24:00 19° NW 19:27:21 10° N visible
25 Oct 6.4 18:38:04 10° WSW 18:41:58 31° NW 18:46:07 10° NNE visible
27 Oct 7.3 18:59:18 10° WNW 19:01:37 14° NW 19:04:02 10° N visible
